[[{"header":{"parameterUnit":"m.s-1","parameterCategory":2,"la1":30.2991,"la2":30.254,"lo1":-89.0895,"lo2":-89.0444,"dy":0.0017,"dx":0.0017,"nx":28,"ny":28,"refTime":"2024-05-08T09:00:00:Z","depth":"0","parameterNumber":2,"parameterNumberName":"U-component_of_CURRENTS"},"data":[0,0,0,0,0,0,0,0,0,0,0,0,0,0,0,0,0,0,0,0,0,0,0,0,0,0,0,0,0,0,0,0,0,0,0,0,0,0,0,0,0,0,0,0,0,0,0,0,0,0,0,0,0,0,0,0,0,0,0.3534,0.3535,0,0.3592,0.3593,0.3593,0.3603,0.3603,0.3603,0.3602,0.3657,0.3659,0.3661,0,0,0,0,0,0,0,0,0,0,0,0,0,0.3462,0.3463,0.3534,0.3535,0.3535,0.3592,0.3593,0.3593,0.3604,0.3603,0.3603,0.3602,0.3657,0.3659,0.3661,0,0,0,0,0,0,0,0,0,0,0,0,0,0.3503,0.3464,0.3534,0.3548,0.355,0.3592,0.3593,0.3594,0.3604,0.3603,0.3602,0.3602,0.3656,0.3659,0.3662,0.3691,0,0,0.367,0.3671,0,0,0,0,0,0,0,0,0.3501,0.3506,0.3545,0.3547,0.3549,0.3591,0.3588,0.3626,0.3604,0.3582,0.3602,0.3602,0.3636,0.364,0.3651,0.3693,0.3696,0.367,0.3672,0.3673,0.3674,0,0,0,0,0,0,0,0.3498,0.3504,0.3556,0.3546,0.3549,0.3562,0.3567,0.3595,0.3611,0.3584,0.3585,0.3593,0.3637,0.3649,0.3653,0.3697,0.367,0.3673,0.3674,0.3675,0.3759,0.376,0,0,0,0,0,0,0.3492,0.3501,0.3554,0.3558,0.3524,0.3564,0.3569,0.3577,0.3611,0.3616,0.3594,0.3594,0.3644,0.3649,0.3655,0.3704,0.3673,0.3676,0.3677,0.3759,0.376,0.376,0,0,0,0,0,0,0.349,0.3496,0.3552,0.3531,0.3539,0.3566,0.3575,0.3579,0.3594,0.3618,0.3623,0.3605,0.3644,0.3651,0.3681,0.3705,0.3677,0.3679,0.3758,0.3759,0.376,0.3794,0,0,0,0,0,0,0.3488,0.3495,0.3503,0.3531,0.354,0.3584,0.3576,0.358,0.36,0.36,0.3629,0.3634,0.3644,0.3677,0.3684,0.3708,0.3682,0.3757,0.3759,0.376,0.3792,0.3795,0.3799,0,0,0,0,0,0.3485,0.35,0.3503,0.3509,0.3548,0.3585,0.3592,0.3607,0.3601,0.3616,0.3628,0.3633,0.3688,0.368,0.3688,0.3714,0.3757,0.3758,0.376,0.379,0.3795,0.3799,0,0,0,0,0,0,0.3499,0.3504,0.3507,0.3529,0.3557,0.3587,0.3606,0.3611,0.3634,0.3633,0.3646,0.3652,0.3692,0.3693,0.3683,0.3739,0.3722,0.3725,0.3742,0.3747,0.375,0.3764,0.3684,0,0,0,0,0,0.3499,0.3496,0.3522,0.3544,0.3556,0.358,0.3597,0.3608,0.363,0.3639,0.3656,0.3673,0.3704,0.3716,0.3743,0.3773,0.3797,0.3791,0.3795,0.3798,0.3813,0.386,0.3869,0.3764,0.3764,0.3764,0,0,0.3517,0.3516,0.352,0.3544,0.3565,0.3589,0.3589,0.3619,0.3641,0.3643,0.3675,0.3695,0.3716,0.3754,0.377,0.3756,0.3842,0.3799,0.3802,0.3816,0.3862,0.3873,0.3882,0.3765,0.3765,0.3765,0,0,0.3536,0.3546,0.3544,0.3561,0.3584,0.3604,0.3612,0.3642,0.3658,0.369,0.3701,0.373,0.3764,0.3789,0.3804,0.3842,0.3865,0.3846,0.3872,0.3917,0.3927,0.3935,0.399,0.4003,0.384,0.384,0.384,0,0.3559,0.3554,0.3558,0.3563,0.3579,0.3609,0.3626,0.3657,0.3692,0.3712,0.3702,0.3771,0.3784,0.3842,0.3853,0.3853,0.3885,0.3856,0.3924,0.3933,0.3941,0.3994,0.4008,0.3842,0.3842,0.3842,0.3841,0,0.3572,0.3571,0.358,0.3584,0.3608,0.3633,0.3668,0.3703,0.372,0.3742,0.3801,0.3824,0.3863,0.3871,0.3875,0.3943,0.3951,0.393,0.3916,0.3954,0.4007,0.4021,0.3844,0.3844,0.3843,0.3843,0,0,0.3611,0.3589,0.3594,0.3584,0.3616,0.3637,0.3689,0.374,0.3785,0.3812,0.3868,0.3908,0.3922,0.3941,0.3955,0.3991,0.4074,0.3987,0.3988,0.4047,0.4193,0.4189,0.4204,0.4069,0.4071,0.4073,0.4211,0,0.3622,0.3611,0.361,0.3625,0.3621,0.3664,0.3711,0.3762,0.3815,0.3882,0.3916,0.3977,0.3949,0.3984,0.4013,0.4079,0.4112,0.404,0.4143,0.4146,0.4143,0.422,0.4138,0.4253,0.4225,0.4227,0.4229,0,0.3631,0.361,0.3608,0.3615,0.3627,0.3652,0.3737,0.3788,0.3891,0.3935,0.3997,0.4037,0.4118,0.4077,0.4191,0.4151,0.4173,0.4203,0.4209,0.4205,0.4168,0.4208,0.428,0.4219,0.4251,0.4249,0.4247,0,0.3624,0.3617,0.3605,0.3607,0.3629,0.3655,0.3699,0.3796,0.3863,0.3985,0.4056,0.4132,0.4211,0.4244,0.4305,0.4261,0.4431,0.4371,0.4383,0.4383,0.4335,0.4326,0.4364,0.4433,0.4433,0.4432,0.4432,0,0.3625,0.3616,0.3593,0.3587,0.3604,0.3635,0.3705,0.3779,0.3901,0.3988,0.4079,0.4179,0.426,0.4359,0.4362,0.4445,0.4475,0.4422,0.4428,0.4344,0.4335,0.4294,0.4245,0.4437,0.4436,0.4435,0.4434,0,0.3615,0.3602,0.3577,0.3582,0.3589,0.3607,0.37,0.3767,0.3895,0.4024,0.4073,0.426,0.4405,0.4476,0.458,0.4548,0.4497,0.4604,0.451,0.4503,0.4425,0.438,0.421,0.4085,0.4646,0.4646,0.4647,0,0.3596,0.3578,0.3565,0.3563,0.3562,0.3594,0.3634,0.3747,0.3826,0.4061,0.4124,0.4336,0.4459,0.4645,0.4657,0.4704,0.4541,0.4632,0.4516,0.4445,0.44,0.4154,0.4042,0.4472,0.4471,0.4471,0.447,0,0.3556,0.3559,0.355,0.3543,0.3556,0.3573,0.3637,0.3693,0.3843,0.3979,0.4164,0.4294,0.4514,0.4575,0.4674,0.4668,0.4444,0.462,0.4569,0.43,0.4013,0.3888,0.4366,0.4464,0.4465,0.4465,0.4466,0.4466,0.3527,0.3519,0.3516,0.3505,0.352,0.3526,0.3519,0.3616,0.3723,0.3865,0.4076,0.4221,0.4454,0.4602,0.4563,0.4522,0.4397,0.4431,0.4398,0.4166,0.3983,0.446,0.4542,0.4543,0.4544,0.4545,0.4546,0,0.3458,0.3468,0.3477,0.344,0.3418,0.3454,0.3491,0.3465,0.3522,0.3734,0.3873,0.4132,0.4251,0.4372,0.4475,0.4355,0.4072,0.4249,0.3904,0.3815,0.4302,0.4237,0.4228,0.4228,0.4228,0.4228,0.4228,0.4228,0.3421,0.3395,0.3393,0.3312,0.3301,0.3215,0.3201,0.3204,0.3303,0.343,0.3574,0.3749,0.4133,0.4378,0.4354,0.4234,0.3901,0.3729,0.3653,0.4067,0.408,0.4092,0.4021,0.3967,0.3966,0.3016,0.3009,0.3004]},{"header":{"parameterUnit":"m.s-1","parameterCategory":2,"la1":30.2991,"la2":30.254,"lo1":-89.0895,"lo2":-89.0444,"dy":0.0017,"dx":0.0017,"nx":28,"ny":28,"refTime":"2024-05-08T09:00:00:Z","depth":"0","parameterNumber":3,"parameterNumberName":"V-component_of_CURRENTS"},"data":[0,0,0,0,0,0,0,0,0,0,0,0,0,0,0,0,0,0,0,0,0,0,0,0,0,0,0,0,0,0,0,0,0,0,0,0,0,0,0,0,0,0,0,0,0,0,0,0,0,0,0,0,0,0,0,0,0,0,0.0345,0.0344,0,0.0263,0.0262,0.0261,0.0201,0.0201,0.02,0.02,0.0105,0.0103,0.0101,0,0,0,0,0,0,0,0,0,0,0,0,0,0.0343,0.0344,0.0345,0.0344,0.0343,0.0263,0.0262,0.0261,0.0201,0.0201,0.02,0.02,0.0106,0.0103,0.0101,0,0,0,0,0,0,0,0,0,0,0,0,0,0.031,0.0344,0.0346,0.0305,0.03,0.0264,0.0262,0.0261,0.0201,0.0201,0.02,0.0199,0.0107,0.0104,0.0101,0.0094,0,0,0.0091,0.009,0,0,0,0,0,0,0,0,0.0312,0.031,0.0312,0.0307,0.0302,0.0242,0.0227,0.0205,0.0201,0.0238,0.02,0.0199,0.0151,0.0144,0.0129,0.009,0.0086,0.0091,0.0089,0.0087,0.0086,0,0,0,0,0,0,0,0.0315,0.0313,0.0312,0.0311,0.0305,0.0254,0.0249,0.0222,0.0198,0.0235,0.023,0.0223,0.0148,0.0132,0.0127,0.0084,0.0091,0.0088,0.0086,0.0085,0.0028,0.0029,0,0,0,0,0,0,0.0333,0.0316,0.0315,0.031,0.0307,0.0255,0.025,0.0262,0.0199,0.0189,0.0223,0.022,0.0138,0.013,0.0123,0.0127,0.0087,0.0084,0.0083,0.0028,0.0028,0.0029,0,0,0,0,0,0,0.0334,0.0335,0.0318,0.031,0.0304,0.0256,0.027,0.026,0.0249,0.019,0.018,0.0222,0.0137,0.0127,0.0108,0.0122,0.0083,0.008,0.0027,0.0028,0.0029,0.0124,0,0,0,0,0,0,0.0335,0.0336,0.0349,0.0312,0.0306,0.031,0.027,0.0259,0.0245,0.024,0.0186,0.0176,0.0136,0.0113,0.0105,0.0117,0.0078,0.0027,0.0028,0.0028,0.0121,0.0128,0.0134,0,0,0,0,0,0.0335,0.0364,0.0351,0.035,0.0327,0.0311,0.0303,0.0264,0.0246,0.0249,0.0212,0.0178,0.0111,0.0111,0.0101,0.0113,0.0027,0.0028,0.0028,0.0118,0.0127,0.0134,0,0,0,0,0,0,0.0364,0.0359,0.0344,0.0368,0.0345,0.0301,0.03,0.0275,0.0247,0.0243,0.0187,0.0175,0.0162,0.0125,0.0126,0.0097,0.0062,0.0061,0.0133,0.0141,0.0148,0.0175,0.0075,0,0,0,0,0,0.038,0.0402,0.0377,0.0393,0.0388,0.0346,0.0333,0.0311,0.0281,0.0267,0.0228,0.0187,0.0157,0.0141,0.0107,0.0097,0.0053,0.0094,0.0101,0.0108,0.0122,0.0068,0.0072,0.0032,0.0032,0.0032,0,0,0.0391,0.0393,0.0402,0.04,0.0379,0.0387,0.0337,0.0331,0.0337,0.0263,0.0259,0.0213,0.016,0.0146,0.0136,0.0118,0.0095,0.0109,0.0115,0.0126,0.007,0.0074,0.0077,0.0032,0.0032,0.0032,0,0,0.043,0.0432,0.0463,0.0456,0.044,0.042,0.0425,0.039,0.0375,0.0363,0.0312,0.0276,0.0231,0.0194,0.017,0.0195,0.0135,0.0183,0.024,0.0187,0.019,0.0193,0.0139,0.0136,0.0185,0.0185,0.0185,0,0.0441,0.0483,0.0464,0.049,0.0493,0.0444,0.0472,0.0452,0.0413,0.0409,0.0375,0.0304,0.0253,0.0238,0.0242,0.0212,0.0174,0.0216,0.0198,0.0199,0.02,0.0144,0.014,0.019,0.0189,0.0188,0.0188,0,0.0504,0.0531,0.0548,0.0572,0.0573,0.0588,0.0565,0.0562,0.0534,0.0504,0.0479,0.0403,0.0362,0.0334,0.0295,0.028,0.0249,0.0215,0.0182,0.021,0.0149,0.0142,0.0196,0.0195,0.0193,0.0192,0,0,0.054,0.0586,0.0591,0.0621,0.0622,0.0635,0.0652,0.0654,0.0675,0.0611,0.0624,0.0543,0.0494,0.0464,0.0401,0.0349,0.0309,0.0294,0.0289,0.0252,0.0196,0.0188,0.0179,0.0276,0.0275,0.0275,0.0151,0,0.0591,0.0666,0.0673,0.0737,0.0771,0.0751,0.0778,0.0771,0.0748,0.0746,0.0657,0.0635,0.0547,0.0529,0.0465,0.0359,0.0297,0.0346,0.0166,0.0161,0.0159,0.0173,0.0201,0.0095,0.0144,0.0143,0.0142,0,0.0653,0.0695,0.0772,0.0836,0.0851,0.0882,0.0926,0.0946,0.0925,0.0905,0.0857,0.0783,0.0708,0.0623,0.0448,0.0487,0.0354,0.0253,0.0245,0.0204,0.0141,0.0074,0.008,-0.0104,0.0131,0.0132,0.0133,0,0.0702,0.0771,0.0841,0.0859,0.0914,0.0952,0.0986,0.0992,0.1038,0.1007,0.1028,0.0905,0.087,0.0688,0.0484,0.0463,0.029,0.0227,0.0087,0.0084,0.0056,0.0052,-0.0126,0.0091,0.0092,0.0092,0.0092,0,0.0767,0.0823,0.0872,0.0912,0.1007,0.102,0.1122,0.1131,0.117,0.1249,0.1119,0.1147,0.0887,0.0757,0.0536,0.0312,0.0322,0.0105,0.0057,0.0089,0.009,-0.0113,-0.0255,0.0087,0.0088,0.0089,0.009,0,0.0822,0.085,0.0936,0.1006,0.1038,0.111,0.1237,0.1315,0.1327,0.1429,0.1428,0.1332,0.1164,0.0893,0.0607,0.0405,0.0043,0.0075,0.0135,0.0096,-0.0212,-0.0349,-0.0596,-0.0706,-0.0108,-0.0109,-0.011,0,0.0861,0.091,0.1009,0.1078,0.112,0.1232,0.1327,0.1387,0.1487,0.1558,0.1623,0.1492,0.1443,0.1022,0.0622,0.0235,0.0015,0.0002,-0.0044,-0.0214,-0.0405,-0.0484,-0.0565,-0.0057,-0.0057,-0.0057,-0.0058,0,0.0935,0.0968,0.1043,0.118,0.129,0.1427,0.1568,0.1673,0.1768,0.1852,0.1941,0.1904,0.1519,0.1163,0.0638,0.0345,-0.0137,-0.0014,-0.0212,-0.0391,-0.0471,-0.0601,0.0004,-0.0059,-0.0059,-0.0059,-0.0059,-0.0059,0.099,0.1059,0.1162,0.1297,0.1433,0.1614,0.1751,0.1912,0.2088,0.225,0.2193,0.2207,0.1696,0.0984,0.0562,-0.0137,-0.0183,-0.0339,-0.0496,-0.0562,-0.0652,-0.0041,-0.0141,-0.0142,-0.0142,-0.0142,-0.0142,0,0.1051,0.1142,0.1277,0.1444,0.1609,0.1668,0.1909,0.206,0.2286,0.2447,0.2523,0.2325,0.1652,0.0972,0.0026,-0.0483,-0.069,-0.0777,-0.0894,-0.096,-0.0427,-0.0404,-0.0538,-0.0537,-0.0537,-0.0537,-0.0537,-0.0537,0.1088,0.1221,0.1294,0.1558,0.169,0.1923,0.207,0.2296,0.2473,0.2696,0.2763,0.277,0.2317,0.0543,-0.0613,-0.0924,-0.1282,-0.1377,-0.157,-0.1208,-0.1178,-0.115,-0.1158,-0.1447,-0.1449,-0.1996,-0.2002,-0.2006]}],[{"header":{"parameterUnit":"m.s-1","parameterCategory":2,"la1":30.2991,"la2":30.254,"lo1":-89.0895,"lo2":-89.0444,"dy":0.0017,"dx":0.0017,"nx":28,"ny":28,"refTime":"2024-05-08T09:00:00:Z","depth":"2","parameterNumber":2,"parameterNumberName":"U-component_of_CURRENTS"},"data":[0,0,0,0,0,0,0,0,0,0,0,0,0,0,0,0,0,0,0,0,0,0,0,0,0,0,0,0,0,0,0,0,0,0,0,0,0,0,0,0,0,0,0,0,0,0,0,0,0,0,0,0,0,0,0,0,0,0,0.3334,0.3335,0,0.3395,0.3395,0.3396,0.3413,0.3413,0.3413,0.3413,0.3469,0.3471,0.3473,0,0,0,0,0,0,0,0,0,0,0,0,0,0.3245,0.3247,0.3334,0.3335,0.3336,0.3395,0.3395,0.3396,0.3413,0.3413,0.3413,0.3413,0.3469,0.3471,0.3473,0,0,0,0,0,0,0,0,0,0,0,0,0,0.3291,0.3247,0.3334,0.3353,0.3356,0.3395,0.3395,0.3396,0.3413,0.3413,0.3413,0.3413,0.3468,0.3471,0.3473,0.3492,0,0,0.348,0.3481,0,0,0,0,0,0,0,0,0.3288,0.3294,0.335,0.3352,0.3355,0.3398,0.3385,0.3429,0.3414,0.3389,0.3413,0.3413,0.3447,0.3451,0.346,0.3494,0.3497,0.3481,0.3482,0.3483,0.3484,0,0,0,0,0,0,0,0.3285,0.3291,0.3356,0.3351,0.3354,0.3363,0.3369,0.3393,0.3417,0.3391,0.3393,0.3404,0.3448,0.3457,0.3461,0.3497,0.348,0.3483,0.3484,0.3485,0.357,0.3571,0,0,0,0,0,0,0.3282,0.3288,0.3354,0.3358,0.3323,0.3365,0.3372,0.3383,0.3416,0.3422,0.3404,0.3404,0.3453,0.3458,0.3463,0.3518,0.3483,0.3485,0.3487,0.357,0.3571,0.3571,0,0,0,0,0,0,0.3279,0.3287,0.3352,0.3326,0.3335,0.3367,0.3379,0.3384,0.3404,0.3426,0.3431,0.342,0.3453,0.346,0.3493,0.3519,0.3486,0.3489,0.3569,0.357,0.3571,0.3607,0,0,0,0,0,0,0.3277,0.3286,0.3297,0.3326,0.3337,0.3386,0.338,0.3386,0.3411,0.3412,0.3442,0.3446,0.3454,0.349,0.3496,0.3521,0.3491,0.3568,0.3569,0.3571,0.3605,0.3609,0.3613,0,0,0,0,0,0.3273,0.329,0.3297,0.3306,0.335,0.3387,0.3394,0.3413,0.3412,0.3428,0.3443,0.3445,0.3503,0.3493,0.3499,0.3526,0.3567,0.3569,0.357,0.3603,0.3608,0.3613,0,0,0,0,0,0,0.3268,0.3295,0.3303,0.333,0.3361,0.3391,0.3412,0.342,0.3445,0.3448,0.3459,0.3465,0.3509,0.3509,0.3496,0.3554,0.3535,0.3538,0.3557,0.3562,0.3566,0.358,0.3493,0,0,0,0,0,0.327,0.3285,0.3317,0.3342,0.3358,0.3385,0.3404,0.3418,0.3443,0.3454,0.3471,0.3491,0.3521,0.3533,0.3559,0.3588,0.361,0.3608,0.3612,0.3616,0.3631,0.3676,0.3686,0.3577,0.3577,0.3577,0,0,0.3277,0.3293,0.3304,0.3342,0.3366,0.3393,0.3396,0.3432,0.3455,0.3457,0.3494,0.3514,0.3534,0.3572,0.359,0.3574,0.3659,0.3618,0.3621,0.3635,0.3679,0.3689,0.3699,0.3579,0.3578,0.3578,0,0,0.3291,0.3313,0.3327,0.3351,0.3389,0.341,0.3422,0.3457,0.3476,0.3512,0.3523,0.3556,0.359,0.3613,0.3627,0.3669,0.3687,0.3675,0.3703,0.3745,0.3755,0.3764,0.3813,0.3825,0.3668,0.3668,0.3668,0,0.33,0.3318,0.334,0.336,0.3381,0.3417,0.344,0.3471,0.3511,0.3533,0.3528,0.3599,0.3611,0.3667,0.3681,0.3681,0.3711,0.3682,0.3752,0.3761,0.3769,0.3817,0.3831,0.367,0.367,0.367,0.367,0,0.3315,0.3337,0.3353,0.3383,0.3411,0.3442,0.3483,0.3521,0.3544,0.3568,0.3631,0.3655,0.3695,0.3704,0.3707,0.3775,0.3781,0.376,0.3741,0.3783,0.383,0.3844,0.3673,0.3672,0.3672,0.3671,0,0,0.3319,0.3354,0.3362,0.3373,0.3424,0.3447,0.3503,0.3558,0.3605,0.3639,0.3696,0.374,0.3757,0.3776,0.3789,0.3824,0.3906,0.382,0.3821,0.3872,0.4017,0.3995,0.4008,0.39,0.3902,0.3904,0.403,0,0.3328,0.3353,0.3374,0.3411,0.3428,0.3478,0.3528,0.3583,0.3638,0.3706,0.3743,0.3806,0.3784,0.3821,0.385,0.391,0.3942,0.3875,0.3966,0.397,0.3948,0.4023,0.3714,0.3798,0.4043,0.4045,0.4047,0,0.3336,0.3346,0.3372,0.3418,0.3434,0.3465,0.3556,0.3608,0.3712,0.3759,0.3825,0.3866,0.3947,0.3911,0.402,0.3983,0.4003,0.403,0.4035,0.4014,0.3973,0.3794,0.3813,0.407,0.4068,0.4066,0.4065,0,0.3311,0.3353,0.3367,0.3381,0.3438,0.347,0.352,0.362,0.3686,0.381,0.3881,0.3958,0.4036,0.407,0.4128,0.4088,0.4245,0.4188,0.4183,0.4182,0.3937,0.3911,0.4249,0.4249,0.4248,0.4248,0.4248,0,0.3303,0.3318,0.3356,0.3358,0.3398,0.345,0.3525,0.3602,0.3725,0.381,0.3907,0.4003,0.4084,0.4176,0.418,0.4249,0.4285,0.422,0.4222,0.3942,0.3916,0.4156,0.4143,0.4253,0.4252,0.4251,0.425,0,0.3269,0.3295,0.3312,0.3361,0.3381,0.3412,0.3521,0.3585,0.372,0.3846,0.3896,0.4078,0.4214,0.4281,0.4378,0.4341,0.4386,0.4384,0.4064,0.4026,0.4278,0.4266,0.4401,0.4402,0.4402,0.4403,0.4403,0,0.3247,0.3251,0.3299,0.3314,0.3334,0.339,0.3438,0.3565,0.364,0.3879,0.3935,0.414,0.4248,0.4412,0.4393,0.4424,0.4447,0.4142,0.4002,0.4311,0.4299,0.4286,0.4273,0.3689,0.3684,0.3679,0.3675,0,0.3199,0.3226,0.3237,0.3273,0.3309,0.3346,0.3423,0.3472,0.3634,0.377,0.3948,0.4069,0.425,0.4176,0.4245,0.4197,0.4114,0.4055,0.4463,0.3711,0.3652,0.3637,0.3645,0.3635,0.3639,0.3642,0.3644,0.3646,0.3173,0.317,0.3199,0.322,0.3259,0.3272,0.326,0.3367,0.347,0.3597,0.3811,0.3883,0.3958,0.3926,0.3815,0.3722,0.3994,0.3794,0.3802,0.3816,0.3724,0.367,0.3639,0.3643,0.3646,0.3649,0.3652,0,0.3103,0.3119,0.3145,0.3147,0.3128,0.3194,0.3221,0.3179,0.3229,0.3409,0.3535,0.3334,0.3338,0.3375,0.3197,0.3219,0.3104,0.3068,0.2883,0.2932,0.2973,0.2828,0.2511,0.2506,0.2502,0.2498,0,0,0.3071,0.3051,0.3047,0.2989,0.3003,0.293,0.2905,0.2889,0.2946,0.2946,0.297,0.3239,0.3355,0.2906,0.2862,0.2655,0.2752,0.2548,0.3486,0.3323,0.3357,0.3443,0.3285,0,0,0,0,0]},{"header":{"parameterUnit":"m.s-1","parameterCategory":2,"la1":30.2991,"la2":30.254,"lo1":-89.0895,"lo2":-89.0444,"dy":0.0017,"dx":0.0017,"nx":28,"ny":28,"refTime":"2024-05-08T09:00:00:Z","depth":"2","parameterNumber":3,"parameterNumberName":"V-component_of_CURRENTS"},"data":[0,0,0,0,0,0,0,0,0,0,0,0,0,0,0,0,0,0,0,0,0,0,0,0,0,0,0,0,0,0,0,0,0,0,0,0,0,0,0,0,0,0,0,0,0,0,0,0,0,0,0,0,0,0,0,0,0,0,0.0269,0.0268,0,0.0192,0.0191,0.019,0.0132,0.0132,0.0131,0.0131,0.0039,0.0037,0.0035,0,0,0,0,0,0,0,0,0,0,0,0,0,0.0259,0.026,0.0269,0.0268,0.0267,0.0192,0.0191,0.019,0.0132,0.0132,0.0131,0.0131,0.004,0.0038,0.0035,0,0,0,0,0,0,0,0,0,0,0,0,0,0.023,0.026,0.0269,0.023,0.0226,0.0192,0.0191,0.0189,0.0132,0.0132,0.0131,0.0131,0.0041,0.0038,0.0035,0.0028,0,0,0.0025,0.0024,0,0,0,0,0,0,0,0,0.0232,0.023,0.0237,0.0233,0.0228,0.0172,0.0153,0.0135,0.0133,0.0167,0.0131,0.013,0.0083,0.0077,0.0062,0.0024,0.002,0.0025,0.0023,0.0022,0.0021,0,0,0,0,0,0,0,0.0234,0.0233,0.0238,0.0236,0.0231,0.018,0.0176,0.0149,0.0129,0.0164,0.016,0.0153,0.0081,0.0066,0.006,0.0019,0.0025,0.0022,0.0021,0.0019,-0.0036,-0.0035,0,0,0,0,0,0,0.0252,0.0235,0.024,0.0235,0.023,0.0181,0.0176,0.019,0.0129,0.012,0.0154,0.0151,0.0071,0.0064,0.0056,0.0059,0.0022,0.0019,0.0017,-0.0036,-0.0036,-0.0035,0,0,0,0,0,0,0.0253,0.0254,0.0243,0.0233,0.0228,0.0183,0.0198,0.0189,0.0178,0.0122,0.0112,0.0153,0.007,0.0061,0.0042,0.0055,0.0018,0.0015,-0.0037,-0.0036,-0.0035,0.0056,0,0,0,0,0,0,0.0253,0.0255,0.0269,0.0235,0.0229,0.0236,0.0198,0.0188,0.0175,0.017,0.0118,0.0108,0.0069,0.0048,0.0039,0.005,0.0012,-0.0037,-0.0036,-0.0036,0.0053,0.006,0.0066,0,0,0,0,0,0.0253,0.0282,0.0271,0.0271,0.0251,0.0237,0.0229,0.0192,0.0176,0.0179,0.0144,0.011,0.0046,0.0046,0.0036,0.0046,-0.0037,-0.0037,-0.0036,0.005,0.0058,0.0066,0,0,0,0,0,0,0.0276,0.0278,0.0265,0.029,0.0269,0.0227,0.0226,0.0203,0.0177,0.0174,0.012,0.0108,0.0095,0.0059,0.006,0.003,-0.0003,-0.0004,0.0065,0.0072,0.0079,0.0104,0.001,0,0,0,0,0,0.0292,0.0318,0.0296,0.0313,0.0309,0.027,0.0258,0.0238,0.0209,0.0197,0.0159,0.0119,0.009,0.0074,0.0042,0.0031,-0.0012,0.0027,0.0034,0.004,0.0053,-0.0002,0.0001,-0.0032,-0.0032,-0.0033,0,0,0.0299,0.0306,0.0316,0.0319,0.03,0.0308,0.0262,0.0257,0.0262,0.0192,0.0188,0.0145,0.0093,0.0079,0.0069,0.0051,0.0026,0.0041,0.0047,0.0056,-0.0,0.0003,0.0006,-0.0032,-0.0032,-0.0032,0,0,0.0335,0.0342,0.0373,0.0369,0.0358,0.0339,0.0345,0.0313,0.0299,0.0288,0.0239,0.0205,0.0162,0.0124,0.0101,0.0124,0.0066,0.0113,0.0165,0.0112,0.0115,0.0117,0.0066,0.0063,0.0114,0.0114,0.0114,0,0.034,0.0386,0.0374,0.0401,0.0407,0.0362,0.039,0.0371,0.0335,0.033,0.03,0.0231,0.0182,0.0164,0.0169,0.014,0.0104,0.0142,0.0122,0.0123,0.0123,0.0071,0.0066,0.0119,0.0118,0.0118,0.0117,0,0.0398,0.0431,0.0449,0.0477,0.048,0.0496,0.0476,0.0474,0.0449,0.042,0.0395,0.0323,0.0283,0.0256,0.022,0.0202,0.0173,0.014,0.0107,0.0133,0.0075,0.0068,0.0125,0.0123,0.0122,0.0121,0,0,0.0419,0.048,0.0485,0.0519,0.0527,0.0539,0.0557,0.0559,0.0577,0.0518,0.0527,0.0452,0.0405,0.0376,0.0316,0.0264,0.0224,0.0213,0.0208,0.0172,0.0112,0.0096,0.0086,0.0191,0.019,0.019,0.0072,0,0.0463,0.0544,0.0559,0.0624,0.0662,0.0647,0.0673,0.0667,0.0645,0.0641,0.0556,0.0535,0.0454,0.0437,0.0375,0.0271,0.0211,0.026,0.0085,0.008,0.0069,0.0079,0.0095,-0.0008,0.0065,0.0064,0.0063,0,0.0518,0.0567,0.0647,0.072,0.0735,0.0767,0.0809,0.0828,0.0806,0.0787,0.0741,0.0671,0.0597,0.0521,0.0349,0.0388,0.0263,0.0166,0.0159,0.011,0.0051,-0.0024,-0.0024,0.005,0.0051,0.0052,0.0053,0,0.0554,0.0634,0.0708,0.0729,0.0793,0.083,0.0864,0.087,0.0912,0.0881,0.0899,0.0781,0.0745,0.0573,0.0378,0.0363,0.0186,0.0132,-0.0006,-0.0009,-0.0047,-0.0051,0.0003,0.0003,0.0003,0.0004,0.0004,0,0.0607,0.0665,0.0735,0.0776,0.0872,0.0892,0.0988,0.0997,0.1032,0.1102,0.0983,0.1003,0.0759,0.063,0.0423,0.0203,0.0214,0.001,-0.0038,-0.0015,-0.0015,-0.0005,-0.0004,-0.0001,0.0,0.0001,0.0002,0,0.0641,0.0684,0.0778,0.0861,0.0897,0.0968,0.1094,0.1163,0.1177,0.1267,0.1267,0.1171,0.1004,0.0748,0.0473,0.0283,0.0053,-0.0034,0.0014,-0.0025,-0.0124,-0.0118,-0.0208,-0.0209,-0.0211,-0.0212,-0.0213,0,0.0672,0.0724,0.0842,0.0913,0.096,0.1073,0.1164,0.1228,0.1318,0.1382,0.1437,0.1307,0.125,0.084,0.0462,0.0096,0.0051,-0.0129,-0.0167,-0.0107,-0.0145,-0.0136,-0.0128,-0.019,-0.019,-0.0191,-0.0191,0,0.0728,0.0768,0.0846,0.0991,0.1102,0.1238,0.1374,0.1466,0.1561,0.164,0.1717,0.1674,0.1301,0.0937,0.0436,0.0178,-0.0072,-0.0151,-0.0106,-0.0126,-0.0096,-0.0131,-0.0123,-0.0196,-0.0196,-0.0195,-0.0195,-0.0195,0.0773,0.0837,0.0947,0.1086,0.1222,0.1389,0.1512,0.1662,0.1824,0.1961,0.1917,0.1868,0.1458,0.0814,0.0372,-0.0108,-0.0087,-0.0261,-0.0257,-0.0254,-0.0217,-0.019,-0.0301,-0.0301,-0.0301,-0.0302,-0.0302,0,0.0827,0.0912,0.1042,0.1214,0.1365,0.1437,0.1649,0.1771,0.1972,0.2094,0.216,0.1769,0.1358,0.0875,0.0172,-0.0232,-0.0275,-0.0373,-0.0332,-0.0325,-0.0319,-0.0284,-0.0388,-0.0389,-0.039,-0.0391,0,0,0.0862,0.0984,0.105,0.13,0.1436,0.1655,0.178,0.1959,0.2083,0.2194,0.218,0.2107,0.1517,0.1002,0.0434,0.0028,-0.0055,-0.0064,0.0046,0.0169,0.018,-0.0218,-0.0152,0,0,0,0,0]}],[{"header":{"parameterUnit":"m.s-1","parameterCategory":2,"la1":30.2991,"la2":30.254,"lo1":-89.0895,"lo2":-89.0444,"dy":0.0017,"dx":0.0017,"nx":28,"ny":28,"refTime":"2024-05-08T09:00:00:Z","depth":"4","parameterNumber":2,"parameterNumberName":"U-component_of_CURRENTS"},"data":[0,0,0,0,0,0,0,0,0,0,0,0,0,0,0,0,0,0,0,0,0,0,0,0,0,0,0,0,0,0,0,0,0,0,0,0,0,0,0,0,0,0,0,0,0,0,0,0,0,0,0,0,0,0,0,0,0,0,0.2194,0.2195,0,0.2302,0.2303,0.2304,0.2388,0.2389,0.239,0.2391,0.252,0.2523,0.2525,0,0,0,0,0,0,0,0,0,0,0,0,0,0.2038,0.2041,0.2193,0.2195,0.2197,0.2301,0.2303,0.2304,0.2388,0.2389,0.2391,0.2392,0.252,0.2522,0.2525,0,0,0,0,0,0,0,0,0,0,0,0,0,0.2119,0.2041,0.2193,0.2254,0.2261,0.2301,0.2303,0.2304,0.2388,0.2389,0.2391,0.2393,0.2519,0.2522,0.2526,0.2514,0,0,0.2537,0.2538,0,0,0,0,0,0,0,0,0.2114,0.2124,0.2243,0.225,0.2257,0.2336,0.2296,0.2377,0.2387,0.2336,0.2391,0.2393,0.2461,0.247,0.2481,0.252,0.2526,0.2537,0.2539,0.2541,0.2542,0,0,0,0,0,0,0,0.2108,0.212,0.2233,0.2245,0.2254,0.2269,0.2282,0.2311,0.2386,0.234,0.2348,0.2364,0.2465,0.2478,0.2485,0.2527,0.2537,0.254,0.2542,0.2544,0.27,0.2702,0,0,0,0,0,0,0.2101,0.2115,0.223,0.2237,0.2192,0.227,0.2285,0.2306,0.2385,0.24,0.2363,0.2368,0.2471,0.2481,0.249,0.2608,0.2541,0.2544,0.2546,0.2698,0.2701,0.2703,0,0,0,0,0,0,0.2098,0.2111,0.2225,0.218,0.2196,0.2272,0.2295,0.2308,0.237,0.2403,0.2417,0.2419,0.2473,0.2485,0.2562,0.2609,0.2545,0.2549,0.2696,0.2699,0.2702,0.2763,0,0,0,0,0,0,0.2093,0.2109,0.2142,0.218,0.2199,0.2282,0.2294,0.2309,0.2377,0.2386,0.2454,0.2465,0.2475,0.2557,0.2565,0.2613,0.2552,0.2694,0.2697,0.2701,0.2759,0.2768,0.2776,0,0,0,0,0,0.2087,0.2118,0.2143,0.2158,0.2235,0.2284,0.2296,0.2351,0.2378,0.2412,0.2463,0.2466,0.2587,0.2561,0.2571,0.2621,0.2692,0.2696,0.2701,0.2755,0.2766,0.2776,0,0,0,0,0,0,0.2064,0.2131,0.2159,0.221,0.226,0.2301,0.2345,0.2376,0.2441,0.2466,0.249,0.2505,0.2592,0.2596,0.2567,0.2677,0.264,0.2647,0.2678,0.2689,0.2697,0.2701,0.2554,0,0,0,0,0,0.2073,0.2124,0.2177,0.2223,0.2254,0.2307,0.2343,0.2381,0.2433,0.2466,0.2512,0.2562,0.2608,0.2642,0.2682,0.2738,0.2746,0.2778,0.2786,0.2793,0.2804,0.2849,0.2862,0.2718,0.2718,0.2718,0,0,0.2071,0.2123,0.2148,0.2224,0.227,0.2317,0.2334,0.2404,0.2453,0.2468,0.2562,0.26,0.2632,0.2702,0.274,0.2718,0.2841,0.2799,0.2805,0.2812,0.2855,0.2869,0.2881,0.2721,0.2721,0.272,0,0,0.2086,0.2148,0.2192,0.2241,0.2326,0.2358,0.2388,0.2458,0.2508,0.2586,0.2615,0.2682,0.2752,0.2783,0.2805,0.2883,0.2888,0.2905,0.2952,0.2995,0.3007,0.3018,0.305,0.3063,0.2906,0.2906,0.2906,0,0.2086,0.2152,0.2211,0.2266,0.2312,0.238,0.2428,0.2482,0.2571,0.2614,0.2632,0.2757,0.2786,0.2864,0.2897,0.2904,0.2928,0.2907,0.3006,0.3017,0.3026,0.3056,0.307,0.2909,0.2909,0.2909,0.2908,0,0.2116,0.2191,0.2225,0.2318,0.237,0.243,0.2502,0.2575,0.2642,0.2687,0.2799,0.2845,0.2917,0.294,0.2947,0.3038,0.3034,0.3013,0.2976,0.3045,0.3072,0.3085,0.2914,0.2913,0.2912,0.2911,0,0,0.2057,0.2214,0.2231,0.2293,0.2408,0.2448,0.2544,0.2635,0.2708,0.2796,0.2883,0.2968,0.3007,0.3034,0.306,0.3102,0.3193,0.3099,0.3099,0.3124,0.3298,0.31,0.3095,0.3198,0.32,0.3202,0.329,0,0.2069,0.2179,0.2252,0.2355,0.2418,0.2512,0.259,0.2685,0.2773,0.2874,0.2943,0.304,0.3038,0.3097,0.3138,0.3193,0.3231,0.3171,0.3233,0.3235,0.3045,0.3103,0.321,0.33,0.3302,0.3305,0.3306,0,0.2064,0.2153,0.2255,0.2401,0.2435,0.2505,0.2648,0.2729,0.2872,0.2946,0.3048,0.3109,0.3216,0.3194,0.3308,0.3278,0.3299,0.3319,0.3322,0.3123,0.306,0.3217,0.3329,0.3327,0.3326,0.3324,0.3323,0,0.1988,0.2146,0.2235,0.2284,0.2452,0.2525,0.2616,0.2759,0.2843,0.3011,0.3095,0.3205,0.3297,0.3342,0.3396,0.3374,0.3499,0.346,0.3295,0.3282,0.3407,0.3394,0.3524,0.3524,0.3523,0.3523,0.3523,0,0.1951,0.2028,0.2223,0.227,0.2386,0.2509,0.2634,0.2744,0.2904,0.2998,0.3137,0.3224,0.3346,0.3425,0.3437,0.3406,0.3531,0.3313,0.3291,0.3431,0.3421,0.3416,0.3402,0.3526,0.3526,0.3525,0.3524,0,0.1846,0.1975,0.2094,0.2291,0.2359,0.2442,0.2641,0.272,0.2899,0.3032,0.3097,0.3281,0.3384,0.3462,0.3551,0.3447,0.3441,0.3394,0.3556,0.3542,0.3186,0.3175,0.3211,0.3205,0.3199,0.3195,0.3191,0,0.18,0.1858,0.2082,0.2157,0.2258,0.2407,0.2502,0.2698,0.2777,0.3035,0.3075,0.3261,0.3353,0.3319,0.3414,0.3411,0.3368,0.3333,0.3234,0.3179,0.3156,0.3153,0.3149,0.3183,0.3181,0.318,0.3178,0,0.171,0.1809,0.1901,0.2059,0.2183,0.2296,0.2447,0.2489,0.2705,0.2899,0.2986,0.3043,0.3151,0.3198,0.3221,0.3211,0.3334,0.3276,0.3286,0.3193,0.3145,0.3127,0.3129,0.316,0.3163,0.3164,0.3166,0,0.1645,0.1676,0.1811,0.1932,0.2069,0.2132,0.2239,0.2342,0.2448,0.2724,0.2751,0.2946,0.3126,0.3097,0.312,0.3094,0.3039,0.2916,0.2944,0.2965,0.284,0.274,0.2618,0,0,0,0,0,0.157,0.158,0.1675,0.1785,0.1906,0.1995,0.2171,0.2278,0.2495,0.2488,0.2609,0.2696,0.2755,0.2858,0.2779,0.3,0.3039,0.2893,0.2909,0.3058,0.3079,0.2952,0,0,0,0,0,0,0.1513,0.1577,0.1613,0.1632,0.168,0.1792,0.19,0.2059,0.2064,0.2299,0.2347,0.2527,0.2623,0.2769,0.2726,0.2752,0.2704,0.3017,0.301,0.3046,0.3065,0.3082,0.2959,0,0,0,0,0]},{"header":{"parameterUnit":"m.s-1","parameterCategory":2,"la1":30.2991,"la2":30.254,"lo1":-89.0895,"lo2":-89.0444,"dy":0.0017,"dx":0.0017,"nx":28,"ny":28,"refTime":"2024-05-08T09:00:00:Z","depth":"4","parameterNumber":3,"parameterNumberName":"V-component_of_CURRENTS"},"data":[0,0,0,0,0,0,0,0,0,0,0,0,0,0,0,0,0,0,0,0,0,0,0,0,0,0,0,0,0,0,0,0,0,0,0,0,0,0,0,0,0,0,0,0,0,0,0,0,0,0,0,0,0,0,0,0,0,0,0.0193,0.0192,0,0.0144,0.0144,0.0143,0.0103,0.0102,0.0102,0.0102,0.0033,0.0031,0.003,0,0,0,0,0,0,0,0,0,0,0,0,0,0.0172,0.0173,0.0193,0.0192,0.0192,0.0144,0.0144,0.0143,0.0103,0.0102,0.0102,0.0102,0.0033,0.0031,0.003,0,0,0,0,0,0,0,0,0,0,0,0,0,0.0158,0.0174,0.0193,0.0167,0.0164,0.0144,0.0144,0.0143,0.0103,0.0102,0.0102,0.0101,0.0034,0.0031,0.0029,0.0026,0,0,0.0022,0.0021,0,0,0,0,0,0,0,0,0.0159,0.0158,0.0171,0.0168,0.0165,0.013,0.0111,0.0103,0.0103,0.0125,0.0102,0.0101,0.0064,0.0059,0.005,0.0023,0.002,0.0022,0.0021,0.002,0.0019,0,0,0,0,0,0,0,0.016,0.016,0.0173,0.017,0.0167,0.013,0.0128,0.0109,0.0097,0.0123,0.012,0.0116,0.0062,0.0053,0.0048,0.0019,0.0022,0.002,0.0019,0.0018,-0.0025,-0.0025,0,0,0,0,0,0,0.0173,0.0161,0.0174,0.0171,0.0161,0.0132,0.0129,0.0141,0.0098,0.0091,0.0117,0.0115,0.0057,0.0051,0.0046,0.0049,0.002,0.0018,0.0016,-0.0025,-0.0025,-0.0025,0,0,0,0,0,0,0.0173,0.0175,0.0176,0.0164,0.0162,0.0133,0.0146,0.014,0.0135,0.0093,0.0086,0.0118,0.0056,0.0049,0.0037,0.0045,0.0017,0.0015,-0.0025,-0.0025,-0.0025,0.0048,0,0,0,0,0,0,0.0172,0.0176,0.0188,0.0166,0.0164,0.0173,0.0147,0.014,0.0133,0.013,0.0092,0.0085,0.0055,0.0041,0.0035,0.0042,0.0013,-0.0026,-0.0025,-0.0025,0.0045,0.0051,0.0056,0,0,0,0,0,0.0172,0.0195,0.0189,0.019,0.0182,0.0174,0.017,0.0145,0.0134,0.0137,0.0113,0.0086,0.0039,0.004,0.0033,0.0039,-0.0026,-0.0025,-0.0025,0.0043,0.005,0.0055,0,0,0,0,0,0,0.0186,0.0192,0.0185,0.0207,0.0195,0.0168,0.0169,0.0153,0.0137,0.0135,0.0095,0.0086,0.0077,0.0048,0.005,0.0026,-0.0,-0.0001,0.0054,0.0059,0.0065,0.0081,0.0011,0,0,0,0,0,0.0198,0.022,0.0208,0.0223,0.0223,0.0198,0.0191,0.0178,0.016,0.0152,0.0125,0.0095,0.0073,0.006,0.0036,0.0028,-0.001,0.0024,0.0029,0.0034,0.0041,-0.001,-0.0009,-0.0023,-0.0023,-0.0023,0,0,0.0202,0.0212,0.022,0.0228,0.0217,0.0225,0.0193,0.0193,0.0199,0.0147,0.0148,0.0115,0.0075,0.0065,0.0057,0.0043,0.0017,0.0034,0.0039,0.0043,-0.001,-0.0008,-0.0007,-0.0023,-0.0023,-0.0023,0,0,0.0226,0.0237,0.0261,0.0261,0.0258,0.0248,0.0253,0.0235,0.0227,0.0222,0.0186,0.016,0.0129,0.0098,0.008,0.0097,0.0047,0.0088,0.0127,0.0078,0.0078,0.0079,0.0034,0.0029,0.0089,0.009,0.009,0,0.0227,0.0264,0.0262,0.0283,0.0291,0.0265,0.0286,0.0276,0.0255,0.0252,0.0232,0.0179,0.0143,0.0126,0.013,0.0109,0.0076,0.011,0.0085,0.0084,0.0083,0.0037,0.0031,0.0093,0.0093,0.0092,0.0092,0,0.0265,0.0294,0.0308,0.0335,0.0342,0.0356,0.0349,0.0351,0.0338,0.0318,0.0299,0.0247,0.0216,0.0195,0.017,0.0148,0.0125,0.01,0.0073,0.0089,0.0039,0.0032,0.0098,0.0097,0.0096,0.0095,0,0,0.0265,0.0325,0.0329,0.0359,0.0375,0.0388,0.0407,0.0412,0.0426,0.0387,0.0393,0.0338,0.0304,0.0281,0.0236,0.019,0.0151,0.0151,0.0146,0.0113,0.0046,0.0031,0.0021,0.0123,0.0122,0.0121,0.0014,0,0.0291,0.0353,0.0375,0.043,0.0461,0.0463,0.0486,0.0488,0.0475,0.0473,0.0411,0.0396,0.0339,0.0328,0.0273,0.0186,0.0135,0.0182,0.0029,0.0024,0.0014,0.0013,0.0119,0.0009,0.0007,0.0006,0.0005,0,0.0318,0.0362,0.0426,0.0496,0.051,0.0541,0.0581,0.06,0.0587,0.0577,0.0542,0.0493,0.0432,0.0379,0.0231,0.0267,0.0168,0.0087,0.0081,0.0038,-0.0004,-0.0014,-0.0009,-0.0008,-0.0007,-0.0006,-0.0005,0,0.0325,0.0399,0.046,0.048,0.0547,0.0583,0.0618,0.0629,0.0661,0.0645,0.0657,0.0566,0.0535,0.0397,0.0239,0.0236,0.0067,0.0038,-0.0074,-0.0077,-0.0063,-0.0063,-0.0073,-0.0073,-0.0073,-0.0073,-0.0072,0,0.0347,0.0394,0.0475,0.0508,0.059,0.0622,0.0699,0.0714,0.0746,0.0793,0.0718,0.0719,0.0539,0.0424,0.0264,0.0078,0.0082,-0.0067,-0.0106,-0.003,-0.0025,-0.0069,-0.0067,-0.0077,-0.0076,-0.0075,-0.0074,0,0.0342,0.0393,0.047,0.056,0.06,0.0657,0.0774,0.0823,0.0846,0.0906,0.091,0.0832,0.0684,0.0488,0.026,0.0124,-0.0064,-0.0134,-0.0031,-0.0062,-0.0183,-0.0176,-0.0268,-0.027,-0.0271,-0.0272,-0.0273,0,0.0349,0.0389,0.0507,0.0566,0.0617,0.0718,0.0793,0.0865,0.0926,0.0974,0.1002,0.0893,0.0812,0.0495,0.0268,-0.0044,-0.0094,-0.0194,-0.02,-0.0175,-0.0203,-0.0195,-0.0186,-0.0275,-0.0275,-0.0275,-0.0276,0,0.0361,0.0401,0.0465,0.0587,0.0685,0.0798,0.0914,0.097,0.1057,0.1083,0.1088,0.0938,0.0769,0.0508,0.0266,0.0039,-0.0131,-0.0208,-0.0208,-0.0213,-0.0184,-0.0209,-0.0199,-0.028,-0.0279,-0.0279,-0.0279,0,0.0369,0.041,0.0501,0.0611,0.073,0.0849,0.0913,0.1009,0.1081,0.1144,0.1139,0.0974,0.0885,0.055,0.0326,0.0101,0.0034,-0.0046,-0.0055,-0.0053,0.0033,0.0103,0.0065,0,0,0,0,0,0.0381,0.0433,0.0525,0.0653,0.0767,0.085,0.0984,0.1041,0.1134,0.1153,0.1158,0.1009,0.0706,0.0572,0.0345,0.0257,-0.0039,-0.0021,-0.0144,-0.0303,-0.0298,-0.0236,0,0,0,0,0,0,0.0391,0.0468,0.0518,0.0669,0.0763,0.0905,0.0995,0.1058,0.1074,0.113,0.0973,0.0941,0.0634,0.0841,0.0339,0.0272,0.0158,-0.0152,-0.0157,-0.0306,-0.0301,-0.0298,-0.0232,0,0,0,0,0]}]]